CDT,Max TemperatureF,Mean TemperatureF,Min TemperatureF,Max Dew PointF,MeanDew PointF,Min DewpointF,Max Humidity, Mean Humidity, Min Humidity, Max Sea Level PressureIn, Mean Sea Level PressureIn, Min Sea Level PressureIn, Max VisibilityMiles, Mean VisibilityMiles, Min VisibilityMiles, Max Wind SpeedMPH, Mean Wind SpeedMPH, Max Gust SpeedMPH,PrecipitationIn, CloudCover, Events, WindDirDegrees
2013-7-1,80,72,63,56,52,48,71,51,33,30.01,29.96,29.93,10,10,10,20,11,29,0.00,4,,16
2013-7-2,72,67,62,59,56,51,82,69,46,30.05,30.01,29.98,10,10,10,16,4,22,0.00,6,Rain,19
2013-7-3,80,70,61,60,56,49,93,67,34,30.07,30.04,30.01,10,9,4,6,0,,0.00,3,Rain,328
2013-7-4,84,72,61,62,60,58,92,65,41,30.09,30.06,30.01,10,10,7,12,3,16,0.00,1,,167
2013-7-5,84,73,62,69,63,58,97,72,40,30.09,30.04,30.00,10,8,0,12,1,,0.00,2,Fog,163
2013-7-6,85,74,63,70,66,62,96,74,51,30.06,30.02,29.96,10,8,2,10,2,,0.00,0,,165
2013-7-7,91,79,67,71,67,62,89,68,45,30.03,29.99,29.95,10,10,10,12,4,,0.00,0,,186
2013-7-8,90,82,74,74,71,67,87,72,53,30.08,30.01,29.97,10,10,10,8,2,17,0.00,2,Rain-Thunderstorm,201
2013-7-9,94,85,77,75,73,72,89,71,49,30.01,29.96,29.89,10,10,10,7,1,,0.00,2,Rain,226
2013-7-10,89,80,70,74,70,62,94,73,46,29.99,29.91,29.84,10,10,2,15,2,29,0.00,3,Rain-Thunderstorm,293
2013-7-11,82,72,62,64,61,56,93,68,43,30.07,30.05,30.00,10,10,10,10,2,,0.00,1,,29
2013-7-12,83,70,57,63,55,44,91,61,26,30.14,30.09,30.05,10,10,10,9,1,,0.00,0,,80
2013-7-13,84,72,59,67,62,57,94,69,44,30.13,30.09,30.05,10,10,7,9,1,,0.00,1,,91
2013-7-14,90,78,65,73,68,63,94,72,44,30.17,30.13,30.08,10,9,7,8,2,,0.00,1,,123
2013-7-15,90,80,71,76,72,69,93,77,56,30.24,30.20,30.16,10,9,5,7,1,,0.00,2,Rain,123
2013-7-16,91,82,72,74,72,69,95,73,48,30.31,30.27,30.23,10,9,5,9,3,,0.00,0,,179
2013-7-17,93,82,70,76,72,69,94,71,47,30.32,30.26,30.18,10,10,7,5,0,,0.00,2,,144
2013-7-18,93,83,73,76,73,72,94,72,50,30.20,30.10,29.99,10,9,4,9,1,,0.00,0,,186
2013-7-19,95,85,75,74,73,70,90,67,43,29.99,29.90,29.82,10,9,7,9,2,,0.00,0,,219
2013-7-20,87,80,72,73,70,64,89,69,48,29.91,29.86,29.82,10,10,10,12,4,,0.00,1,Rain-Thunderstorm,15
2013-7-21,81,74,67,74,70,66,97,88,73,29.93,29.89,29.84,10,6,0,8,1,,0.00,5,Fog-Rain,148
2013-7-22,88,78,67,72,69,66,96,75,50,29.86,29.81,29.75,10,9,3,5,0,,0.00,2,Rain,248
2013-7-23,86,76,66,72,65,61,95,72,48,29.93,29.83,29.76,10,10,7,12,3,23,0.00,1,Rain,333
2013-7-24,77,68,58,61,56,52,94,67,42,30.04,30.00,29.94,10,10,10,13,4,20,0.00,0,,30
2013-7-25,81,68,54,62,56,51,92,66,41,30.11,30.07,30.03,10,10,10,6,0,,0.00,0,,260
2013-7-26,75,68,61,69,63,57,93,84,72,30.06,29.99,29.92,10,10,4,9,2,,0.00,4,Rain-Thunderstorm,194
2013-7-27,70,63,56,61,53,45,93,70,43,29.98,29.95,29.92,10,10,10,14,3,23,0.00,3,,307
2013-7-28,77,64,52,55,50,48,88,62,38,30.05,29.99,29.96,10,10,10,13,2,20,0.00,1,,276
2013-7-29,79,64,50,63,55,49,95,68,41,30.15,30.12,30.06,10,10,10,6,0,,0.00,1,,230
2013-7-30,70,68,65,68,64,58,96,88,74,30.14,30.09,30.02,10,7,1,13,3,16,0.00,8,Rain,134
2013-7-31,78,70,64,71,68,64,97,90,72,30.04,30.01,29.97,10,5,0,8,2,,0.00,7,Fog-Rain,317